| time (UTC) | temp C | wind direction | speed KPH | gust KPH | rain 1hr cm | rain 24hr cm | rain mn cm | humidity % | barometer mb |
| 20260508040016 | 29 | 243 | 1.6 | 6.4 | 0.00 | 0.00 | 0.00 | 10 | 1006.9 |
| 20260508034514 | 29 | 226 | 0.0 | 3.2 | 0.00 | 0.00 | 0.00 | 10 | 1006.6 |
| 20260508033012 | 29 | 247 | 0.0 | 3.2 | 0.00 | 0.00 | 0.00 | 10 | 1006.5 |
| 20260508031512 | 29 | 208 | 0.0 | 3.2 | 0.00 | 0.00 | 0.00 | 9 | 1006.3 |
| 20260508030012 | 30 | 221 | 0.0 | 1.6 | 0.00 | 0.00 | 0.00 | 9 | 1006.1 |
| 20260508024511 | 30 | 215 | 0.0 | 0.0 | 0.00 | 0.00 | 0.00 | 10 | 1005.9 |
| 20260508023011 | 31 | 214 | 0.0 | 0.0 | 0.00 | 0.00 | 0.00 | 9 | 1005.7 |
| 20260508021511 | 31 | 169 | 0.0 | 4.8 | 0.00 | 0.00 | 0.00 | 8 | 1005.7 |
| 20260508020012 | 32 | 234 | 0.0 | 4.8 | 0.00 | 0.00 | 0.00 | 7 | 1005.6 |
| 20260508014512 | 33 | 196 | 0.0 | 8.0 | 0.00 | 0.00 | 0.00 | 6 | 1005.4 |
| 20260508013009 | 34 | 268 | 0.0 | 1.6 | 0.00 | 0.00 | 0.00 | 5 | 1005.3 |
| 20260508011510 | 35 | 259 | 0.0 | 6.4 | 0.00 | 0.00 | 0.00 | 5 | 1005.4 |
| 20260508010009 | 35 | 219 | 0.0 | 0.0 | 0.00 | 0.00 | 0.00 | 5 | 1005.4 |
| 20260508004513 | 35 | 67 | 0.0 | 1.6 | 0.00 | 0.00 | 0.00 | 5 | 1005.3 |
| 20260508003006 | 34 | 219 | 0.0 | 1.6 | 0.00 | 0.00 | 0.00 | 5 | 1005.4 |
| 20260508001515 | 35 | 105 | 0.0 | 6.4 | 0.00 | 0.00 | 0.00 | 5 | 1005.4 |
| 20260508000005 | 34 | 72 | 0.0 | 3.2 | 0.00 | 0.00 | 0.00 | 5 | 1005.4 |
| 20260507234503 | 35 | 63 | 0.0 | 8.0 | 0.00 | 0.00 | 0.00 | 4 | 1005.6 |
| 20260507233008 | 35 | 79 | 0.0 | 6.4 | 0.00 | 0.00 | 0.00 | 5 | 1005.6 |
| 20260507231502 | 35 | 200 | 1.6 | 11.3 | 0.00 | 0.00 | 0.00 | 5 | 1005.6 |
| 20260507230001 | 35 | 271 | 0.0 | 4.8 | 0.00 | 0.00 | 0.00 | 5 | 1005.7 |
| 20260507224602 | 35 | 230 | 1.6 | 9.7 | 0.00 | 0.00 | 0.00 | 5 | 1005.8 |
| 20260507223057 | 35 | 236 | 1.6 | 6.4 | 0.00 | 0.00 | 0.00 | 5 | 1005.9 |
| 20260507221555 | 35 | 356 | 1.6 | 6.4 | 0.00 | 0.00 | 0.00 | 6 | 1006.1 |
| 20260507220053 | 34 | 329 | 3.2 | 11.3 | 0.00 | 0.00 | 0.00 | 7 | 1006.4 |
| 20260507214553 | 35 | 12 | 1.6 | 9.7 | 0.00 | 0.00 | 0.00 | 6 | 1006.5 |
| 20260507213048 | 34 | 77 | 1.6 | 0.0 | 0.00 | 0.00 | 0.00 | 7 | 1006.8 |
| 20260507211547 | 34 | 77 | 3.2 | 8.0 | 0.00 | 0.00 | 0.00 | 8 | 1006.9 |
| 20260507210044 | 35 | 23 | 0.0 | 8.0 | 0.00 | 0.00 | 0.00 | 7 | 1007.2 |
| 20260507204545 | 35 | 249 | 0.0 | 11.3 | 0.00 | 0.00 | 0.00 | 8 | 1007.4 |
| 20260507203037 | 33 | 66 | 0.0 | 6.4 | 0.00 | 0.00 | 0.00 | 9 | 1007.6 |
| 20260507201536 | 33 | 107 | 0.0 | 4.8 | 0.00 | 0.00 | 0.00 | 9 | 1007.9 |
| 20260507200032 | 33 | 77 | 1.6 | 8.0 | 0.00 | 0.00 | 0.00 | 9 | 1008.3 |
| 20260507194529 | 33 | 299 | 0.0 | 4.8 | 0.00 | 0.00 | 0.00 | 9 | 1008.5 |
| 20260507193030 | 33 | 77 | 1.6 | 9.7 | 0.00 | 0.00 | 0.00 | 10 | 1008.7 |
| 20260507191522 | 32 | 51 | 0.0 | 6.4 | 0.00 | 0.00 | 0.00 | 10 | 1009.0 |
| 20260507190020 | 32 | 319 | 1.6 | 9.7 | 0.00 | 0.00 | 0.00 | 11 | 1009.2 |
| 20260507184517 | 32 | 66 | 0.0 | 3.2 | 0.00 | 0.00 | 0.00 | 11 | 1009.5 |
| 20260507183015 | 31 | 276 | 0.0 | 6.4 | 0.00 | 0.00 | 0.00 | 12 | 1009.7 |
| 20260507181512 | 31 | 34 | 0.0 | 6.4 | 0.00 | 0.00 | 0.00 | 14 | 1009.9 |
| 20260507180010 | 30 | 243 | 0.0 | 9.7 | 0.00 | 0.00 | 0.00 | 14 | 1010.0 |
| 20260507174507 | 30 | 336 | 0.0 | 4.8 | 0.00 | 0.00 | 0.00 | 16 | 1010.2 |
| 20260507173005 | 30 | 342 | 0.0 | 3.2 | 0.00 | 0.00 | 0.00 | 17 | 1010.3 |
| 20260507171504 | 29 | 94 | 0.0 | 3.2 | 0.00 | 0.00 | 0.00 | 18 | 1010.4 |
| 20260507170101 | 28 | 75 | 0.0 | 3.2 | 0.00 | 0.00 | 0.00 | 18 | 1010.6 |
| 20260507164557 | 28 | 24 | 0.0 | 4.8 | 0.00 | 0.00 | 0.00 | 19 | 1010.7 |
| 20260507163057 | 27 | 303 | 0.0 | 8.0 | 0.00 | 0.00 | 0.00 | 19 | 1010.6 |
| 20260507161551 | 27 | 56 | 0.0 | 6.4 | 0.00 | 0.00 | 0.00 | 20 | 1010.7 |
| 20260507160052 | 26 | 315 | 0.0 | 9.7 | 0.00 | 0.00 | 0.00 | 21 | 1011.0 |
| 20260507154548 | 26 | 104 | 0.0 | 8.0 | 0.00 | 0.00 | 0.00 | 22 | 1011.1 |
| 20260507153051 | 26 | 103 | 0.0 | 4.8 | 0.00 | 0.00 | 0.00 | 22 | 1011.1 |
| 20260507151544 | 26 | 52 | 0.0 | 1.6 | 0.00 | 0.00 | 0.00 | 22 | 1011.2 |
| 20260507150044 | 26 | 207 | 0.0 | 0.0 | 0.00 | 0.00 | 0.00 | 26 | 1011.1 |
| 20260507144542 | 26 | 212 | 0.0 | 0.0 | 0.00 | 0.00 | 0.00 | 25 | 1011.2 |
| 20260507143039 | 23 | 188 | 0.0 | 0.0 | 0.00 | 0.00 | 0.00 | 28 | 1011.3 |
| 20260507141534 | 22 | 155 | 0.0 | 0.0 | 0.00 | 0.00 | 0.00 | 30 | 1011.1 |
| 20260507140032 | 21 | 169 | 0.0 | 0.0 | 0.00 | 0.00 | 0.00 | 33 | 1011.0 |
| 20260507134531 | 19 | 169 | 0.0 | 0.0 | 0.00 | 0.00 | 0.00 | 35 | 1011.0 |
| 20260507133029 | 17 | 169 | 0.0 | 0.0 | 0.00 | 0.00 | 0.00 | 37 | 1010.7 |
| 20260507131535 | 16 | 181 | 0.0 | 0.0 | 0.00 | 0.00 | 0.00 | 41 | 1010.8 |
| 20260507130027 | 14 | 79 | 0.0 | 0.0 | 0.00 | 0.00 | 0.00 | 44 | 1010.7 |
| 20260507124525 | 15 | 140 | 0.0 | 0.0 | 0.00 | 0.00 | 0.00 | 44 | 1010.6 |
| 20260507123024 | 15 | 165 | 0.0 | 0.0 | 0.00 | 0.00 | 0.00 | 44 | 1010.4 |
| 20260507121522 | 15 | 198 | 0.0 | 0.0 | 0.00 | 0.00 | 0.00 | 44 | 1010.3 |
| 20260507120034 | 15 | 179 | 0.0 | 0.0 | 0.00 | 0.00 | 0.00 | 42 | 1010.4 |
| 20260507114520 | 16 | 150 | 0.0 | 0.0 | 0.00 | 0.00 | 0.00 | 42 | 1010.6 |
| 20260507113016 | 16 | 155 | 0.0 | 0.0 | 0.00 | 0.00 | 0.00 | 40 | 1010.7 |
| 20260507111514 | 16 | 155 | 0.0 | 0.0 | 0.00 | 0.00 | 0.00 | 39 | 1010.7 |
| 20260507110013 | 16 | 203 | 0.0 | 0.0 | 0.00 | 0.00 | 0.00 | 39 | 1010.7 |
| 20260507104513 | 16 | 162 | 0.0 | 0.0 | 0.00 | 0.00 | 0.00 | 40 | 1010.7 |
| 20260507103010 | 16 | 203 | 0.0 | 0.0 | 0.00 | 0.00 | 0.00 | 39 | 1010.7 |
| 20260507101508 | 16 | 215 | 0.0 | 0.0 | 0.00 | 0.00 | 0.00 | 38 | 1010.6 |
| 20260507100008 | 17 | 215 | 0.0 | 0.0 | 0.00 | 0.00 | 0.00 | 37 | 1010.8 |
| 20260507094504 | 17 | 215 | 0.0 | 0.0 | 0.00 | 0.00 | 0.00 | 37 | 1010.7 |
| 20260507093101 | 17 | 215 | 0.0 | 0.0 | 0.00 | 0.00 | 0.00 | 36 | 1010.7 |
| 20260507071551 | 21 | 246 | 0.0 | 0.0 | 0.00 | 0.00 | 0.00 | 25 | 1011.1 |
| 20260507070047 | 22 | 242 | 0.0 | 0.0 | 0.00 | 0.00 | 0.00 | 23 | 1011.1 |
| 20260507064546 | 22 | 231 | 0.0 | 1.6 | 0.00 | 0.00 | 0.00 | 23 | 1011.1 |
| 20260507063045 | 22 | 203 | 0.0 | 1.6 | 0.00 | 0.00 | 0.00 | 23 | 1011.2 |
| 20260507061545 | 22 | 240 | 0.0 | 3.2 | 0.00 | 0.00 | 0.00 | 22 | 1011.2 |
| 20260507060049 | 22 | 226 | 0.0 | 0.0 | 0.00 | 0.00 | 0.00 | 22 | 1011.2 |
| 20260507054604 | 23 | 237 | 0.0 | 3.2 | 0.00 | 0.00 | 0.00 | 21 | 1011.2 |
| 20260507053049 | 23 | 257 | 0.0 | 3.2 | 0.00 | 0.00 | 0.00 | 21 | 1011.1 |
| 20260507051543 | 23 | 224 | 0.0 | 6.4 | 0.00 | 0.00 | 0.00 | 20 | 1011.1 |
| 20260507050042 | 23 | 250 | 0.0 | 6.4 | 0.00 | 0.00 | 0.00 | 20 | 1011.0 |
| 20260507044547 | 23 | 244 | 0.0 | 4.8 | 0.00 | 0.00 | 0.00 | 20 | 1010.9 |
| 20260507043044 | 23 | 233 | 0.0 | 4.8 | 0.00 | 0.00 | 0.00 | 20 | 1010.9 |
| 20260507041542 | 24 | 216 | 0.0 | 1.6 | 0.00 | 0.00 | 0.00 | 20 | 1010.7 |